FW2442 Weather Reports


time (UTC)temp
F
wind
direction
speed
knots
gust
knots
rain 1hr
in
rain 24hr
in
rain mn
in
humidity
%
barometer
mb
20260504140522 78 59 2.6 5.2 0.00 0.00 0.00 36 1014.2
20260504130521 78 51 2.6 5.2 0.00 0.00 0.00 34 1014.5
20260504110522 76 58 0.9 1.7 0.00 0.00 0.00 40 1015.6
20260504100530 73 46 0.9 1.7 0.00 0.00 0.00 43 1016.2
20260504081525 65 0.0 0.0 0.00 0.00 0.00 58 1016.6
20260504080545 64 336 0.0 0.9 0.00 0.00 0.00 60 1016.6
20260504050525 52 0.0 0.0 0.00 0.00 0.00 66 1017.1
20260504045526 51 0.0 0.0 0.00 0.00 0.00 67 1017.0
20260504044525 51 0.0 0.0 0.00 0.00 0.00 66 1017.1
20260504043524 51 0.0 0.0 0.00 0.00 0.00 66 1017.1
20260504042524 51 0.0 0.0 0.00 0.00 0.00 66 1017.0
20260504041545 50 0.0 0.0 0.00 0.00 0.00 66 1016.9
20260504040525 50 0.0 0.0 0.00 0.00 0.00 64 1016.8
20260504035525 50 0.0 0.0 0.00 0.00 0.00 63 1016.8
20260504034523 50 0.0 0.0 0.00 0.00 0.00 62 1016.9
20260504033527 50 0.0 0.0 0.00 0.00 0.00 61 1016.9
20260504032526 49 0.0 0.0 0.00 0.00 0.00 62 1017.0
20260504031525 49 0.0 0.0 0.00 0.00 0.00 61 1017.0
20260504030530 49 0.0 0.0 0.00 0.00 0.00 60 1017.1
20260504025527 50 0.0 0.0 0.00 0.00 0.00 60 1017.1
20260504024601 50 0.0 0.0 0.00 0.00 0.00 60 1017.0
20260504023527 49 0.0 0.0 0.00 0.00 0.00 61 1017.0
20260504022546 48 0.0 0.0 0.00 0.00 0.00 63 1017.1
20260504021527 47 0.0 0.0 0.00 0.00 0.00 64 1017.1
20260504020526 47 0.0 0.0 0.00 0.00 0.00 63 1017.1
20260504015525 48 0.0 0.0 0.00 0.00 0.00 62 1016.9
20260504014527 49 0.0 0.0 0.00 0.00 0.00 62 1017.0
20260504013523 48 0.0 0.0 0.00 0.00 0.00 62 1017.1
20260504012524 47 0.0 0.0 0.00 0.00 0.00 64 1017.1
20260504011547 46 0.0 0.0 0.00 0.00 0.00 67 1017.1
20260504010525 46 0.0 0.0 0.00 0.00 0.00 66 1017.1
20260504005524 46 0.0 0.0 0.00 0.00 0.00 65 1017.2
20260504004524 48 0.0 0.0 0.00 0.00 0.00 62 1017.2
20260504003526 49 0.0 0.0 0.00 0.00 0.00 60 1017.2
20260504002543 49 0.0 0.0 0.00 0.00 0.00 59 1017.2
20260504001525 50 0.0 0.0 0.00 0.00 0.00 56 1017.2
20260504000524 51 0.0 0.0 0.00 0.00 0.00 56 1017.2
20260503235524 51 0.0 0.0 0.00 0.00 0.00 54 1017.2
20260503234524 52 0.0 0.0 0.00 0.00 0.00 53 1017.4
20260503233524 52 0.0 0.0 0.00 0.00 0.00 53 1017.3
20260503232526 52 0.0 0.0 0.00 0.00 0.00 53 1017.3
20260503231525 51 0.0 0.0 0.00 0.00 0.00 53 1017.3
20260503230524 52 0.0 0.0 0.00 0.00 0.00 53 1017.4
20260503225524 52 199 0.0 2.6 0.00 0.00 0.00 52 1017.6
20260503224524 52 0.0 0.0 0.00 0.00 0.00 52 1017.7
20260503223527 52 0.0 0.0 0.00 0.00 0.00 52 1017.8
20260503222526 52 0.0 0.0 0.00 0.00 0.00 53 1017.8
20260503221606 52 200 0.0 1.7 0.00 0.00 0.00 52 1017.8
20260503220522 52 0.0 0.0 0.00 0.00 0.00 52 1017.9
20260503215544 52 0.0 0.0 0.00 0.00 0.00 53 1017.9
20260503214522 53 0.0 0.0 0.00 0.00 0.00 51 1017.9
20260503213522 54 0.0 0.0 0.00 0.00 0.00 50 1018.1
20260503212524 53 0.0 0.0 0.00 0.00 0.00 51 1018.1
20260503211528 52 0.0 0.0 0.00 0.00 0.00 52 1018.1
20260503210604 52 0.0 0.0 0.00 0.00 0.00 54 1018.1
20260503205524 52 0.0 0.0 0.00 0.00 0.00 55 1018.3
20260503204544 52 0.0 0.0 0.00 0.00 0.00 55 1018.3
20260503203523 53 0.0 0.0 0.00 0.00 0.00 52 1018.4
20260503202544 53 0.0 0.0 0.00 0.00 0.00 52 1018.4
20260503201522 53 0.0 0.0 0.00 0.00 0.00 52 1018.4
20260503200525 53 0.0 0.0 0.00 0.00 0.00 52 1018.5
20260503195524 53 0.0 0.0 0.00 0.00 0.00 53 1018.5
20260503194542 53 0.0 0.0 0.00 0.00 0.00 52 1018.6
20260503193524 53 0.0 0.0 0.00 0.00 0.00 52 1018.7
20260503192524 54 0.0 0.0 0.00 0.00 0.00 52 1018.8
20260503191544 54 0.0 0.0 0.00 0.00 0.00 50 1018.7
20260503190523 55 0.0 0.0 0.00 0.00 0.00 50 1018.7
20260503185523 54 0.0 0.0 0.00 0.00 0.00 51 1018.7
20260503184524 55 0.0 0.0 0.00 0.00 0.00 51 1018.8
20260503183523 55 0.0 0.0 0.00 0.00 0.00 50 1018.7
20260503182603 55 291 0.0 0.9 0.00 0.00 0.00 50 1018.6
20260503181544 55 0.0 0.0 0.00 0.00 0.00 50 1018.6
20260503180544 55 0.0 0.0 0.00 0.00 0.00 50 1018.6
20260503175543 56 0.0 0.0 0.00 0.00 0.00 50 1018.6
20260503174523 56 0.0 0.0 0.00 0.00 0.00 49 1018.6
20260503173544 57 0.0 0.0 0.00 0.00 0.00 48 1018.5
20260503172524 58 0.0 0.0 0.00 0.00 0.00 47 1018.6
20260503171523 58 0.0 0.0 0.00 0.00 0.00 46 1018.6
20260503170522 59 0.0 0.0 0.00 0.00 0.00 46 1018.8
20260503150524 60 289 1.7 1.7 0.00 0.00 0.00 40 1019.4